2022-155D (54254 NORAD) Tracking and Keplerian Element Data

This shows tracking and keplerian element data for the satellite.

Feedback or suggestion? Click here.




ElementValue
Catalog54254
Name2022-155D
Epoch Orbit889
Epoch Day14.18703189
Epoch Year2023
RAAN122.9698
Inclination97.536
Eccentricity0.0016105
Argument of Perigee85.7372
Mean Anonmoly5.3717
Mean Motion15.09890765
Decay Rate8.808E-05
L11 54254U 22155D 23014.18703189 .00008808 00000+0 54577-3 0 9996
L22 54254 97.5360 122.9698 0016105 85.7372 5.3717 15.09890765 8892



Live tracking and technical data element details for 2022-155D (NORAD 54254). 2022-155D can be tracked NOW for your location showing map with azimuth and elevation plus other details from your city location.







IsCatalogInMostPopularTable: catalog: 54254, numindb: 12
Update: records affected: 1



GetName: 54254 2022-155D

Hit Count: updated at: Fri, 27 Jan 2023 20:38:19 GMT